Regional Weather Roundup
Issued by NWS

Home | Current Version | Previous Version | Graphics & Text | Print | Product List | Glossary On
Versions: 1 2 3 4 5 6 7 8 9 10 11 12 13 14 15 16 17 18 19 20 21 22 23 24 25 26 27
000
ASUS45 KTFX 281610
RWRMT
MONTANA REGIONAL WEATHER ROUNDUP
NATIONAL WEATHER SERVICE GREAT FALLS MT
1000 AM MDT WED JUN 28 2017

NOTE: "FAIR" INDICATES FEW OR NO CLOUDS BELOW 12000 FEET WITH NO
SIGNIFICANT WEATHER AND/OR OBSTRUCTIONS TO VISIBILITY.

MTZ001>007-043-281700-
WEST OF THE DIVIDE

CITY           SKY/WX    TMP DP  RH WIND       PRES   REMARKS
KALISPELL      SUNNY     68  48  48 S8        29.79S
MISSOULA       SUNNY     65  44  46 CALM      29.85F
BUTTE          CLOUDY    61  42  49 NW3       29.93S
MULLAN PASS    SUNNY     54  38  54 VRB3      29.95S
ANACONDA         N/A     64  43  45 SW10      29.89F
DEER LODGE       N/A     63  46  55 CALM      29.91F
EUREKA           N/A     66  43  42 CALM      29.78F
HAMILTON         N/A     66  48  52 S3        29.86F
$$

MTZ008-052>055-281700-
SOUTHWEST MONTANA

CITY           SKY/WX    TMP DP  RH WIND       PRES   REMARKS
BOZEMAN        SUNNY     63  52  67 CALM      29.87F
DILLON         CLOUDY    61  47  59 SW12      29.90S
W YELLOWSTONE  CLOUDY    55  48  76 SW6       30.01S
ENNIS          SUNNY     66  41  39 S8        29.95F
THREE FORKS      N/A     64  52  65 CALM      29.87F
$$

MTZ009-010-012-014-046-048-049-054-281700-
EAST SLOPES AND CENTRAL MONTANA

CITY           SKY/WX    TMP DP  RH WIND       PRES   REMARKS
CUT BANK       CLOUDY    64  43  46 SW8       29.75F
GREAT FALLS    MOSUNNY   71  38  29 W14       29.77S
MALMSTROM AFB  MOSUNNY   68  37  31 W13       29.77F
HELENA         MOSUNNY   69  40  34 W14       29.85F
CHOTEAU          N/A     70  34  26 W13       29.79F
$$

MTZ011-013-016-021-045-047-050-051-281700-
NORTH CENTRAL MONTANA

CITY           SKY/WX    TMP DP  RH WIND       PRES   REMARKS
HAVRE          MOSUNNY   72  44  36 SW14G22   29.69S
LEWISTOWN      SUNNY     70  38  31 W13G21    29.78F
N BAR RANCH      N/A     72  37  28 W13       29.81F
CHINOOK          N/A     70  52  52 E3        29.68S
FORT BENTON      N/A     72  43  35 MISG      29.75F
$$

MTZ017>020-022>027-061-062-281700-
NORTHEAST MONTANA

CITY           SKY/WX    TMP DP  RH WIND       PRES   REMARKS
GLASGOW        PTSUNNY   68  38  33 SE15      29.71F
JORDAN           N/A     72  55  55 S16       29.72F
SIDNEY         SUNNY     70  42  36 CALM      29.74F
WOLF POINT     SUNNY     72  40  31 E8        29.73F
PLENTYWOOD       N/A     66  43  42 CALM      29.74F
POPLAR           N/A     70  37  30 E5        29.73F
$$

MTZ028>42-056>058-281700-
SOUTHCENTRAL AND SOUTHEAST MONTANA

CITY           SKY/WX    TMP DP  RH WIND       PRES   REMARKS
BAKER          CLOUDY    72  39  30 VRB6      29.79S
BILLINGS       MOSUNNY   72  47  40 SW13      29.79S
LIVINGSTON     SUNNY     71  44  37 W12       29.84F
MILES CITY     CLOUDY    71  51  49 SE8       29.75F
BIG TIMBER     SUNNY     70  45  40 W17G23    29.85F
LAUREL           N/A     71  48  43 S5        29.81R
ROUNDUP          N/A     72  43  35 S8        29.71S
$$

REGIONAL REPORTS...DAKOTAS

CITY           SKY/WX    TMP DP  RH WIND       PRES   REMARKS
WILLISTON      SUNNY     73  39  29 N7        29.74F
MINOT          MOSUNNY   70  44  39 NW20      29.65S
DICKINSON      SUNNY     69  36  29 NW14      29.73F
BEACH            N/A     66  43  42 NW8       29.81S
CROSBY           N/A     66  45  45 N13       29.71F
TIOGA            N/A     66  43  42 NW17      29.73R
WATFORD CITY     N/A     68  43  40 NW10      29.73S
BISMARCK       PTSUNNY   73  49  42 N9G21     29.66R
GRAND FORKS    HVY RAIN  61  61 100 NE15      29.50R FOG
FARGO          RAIN      66  65  96 W7        29.47R FOG
BUFFALO SD       N/A     74  40  29 NW6       29.72F
RAPID CITY     SUNNY     73  53  49 NW15G23   29.80S
$$

REGIONAL REPORTS...WYOMING/IDAHO/WASHINGTON

CITY           SKY/WX    TMP DP  RH WIND       PRES   REMARKS
GILLETTE       SUNNY     69  53  56 S8        29.85F
SHERIDAN       MOSUNNY   74  49  41 SE16G22   29.80F
BUFFALO WY     SUNNY     68  47  46 SE10      29.87F
CODY           MOSUNNY   67  44  43 NW5       29.88F
YELLOWSTONE LA   N/A     50  45  83 VRB3      30.07F
IDAHO FALLS    MOSUNNY   66  47  50 E6        29.94F
SALMON         CLOUDY    63  48  59 NW5       29.89F
BOISE          SUNNY     71  40  32 NW6       29.89R
SPOKANE        MOSUNNY   63  45  51 SW13      29.86R
$$

REGIONAL REPORTS...ALBERTA

CITY           SKY/WX    TMP DP  RH WIND       PRES   REMARKS
EDMONTON       CLOUDY    55  50  82 W14G20    29.61R
CALGARY        MOSUNNY   64  41  42 S6        29.70S
LETHBRIDGE     MOSUNNY   63  46  55 SW10      29.71F
MEDICINE HAT   MOSUNNY   68  45  42 VRB6      29.66F
WATERTON GATE    N/A     66  30  26 SW15G24     N/A
$$

REGIONAL REPORTS...SASKATCHEWAN

CITY           SKY/WX    TMP DP  RH WIND       PRES   REMARKS
SWIFT CURRENT  CLOUDY    64  46  52 S10       29.71F
REGINA         MOSUNNY   66  48  52 NW9       29.70F
SASKATOON      MOSUNNY   66  48  52 W8        29.68R
CYPRESS HILLS    N/A     61  41  48 S15G21      N/A
VAL MARIE        N/A     66  39  37 E14         N/A
ROCKGLEN         N/A     61  41  48 NW2         N/A
ASSINIBOIA       N/A     61  50  67 W15G21      N/A
$$




USA.gov is the U.S. government's official web portal to all federal, state and local government web resources and services.